Weather History for Norfolk, NE

Change the Weather History Date:

Friday, September 16, 2011

  Actual Average Record
Temperature  
Mean Temperature 48 °F 64 °F  
Max Temperature 52 °F 77 °F 96 °F (1955)
Min Temperature 44 °F 51 °F 25 °F (1903)
Degree Days  
Heating Degree Days 17 4  
Month to date heating degree days 83 39  
Since 1 July heating degree days 83 55  
Cooling Degree Days 0 3  
Month to date cooling degree days 45 69  
Year to date cooling degree days 1026 885  
Moisture  
Dew Point 44 °F    
Average Humidity 82    
Maximum Humidity 93    
Minimum Humidity 71    
Precipitation  
Precipitation 0.04 in 0.09 in 2.13 in (1905)
Month to date precipitation 0.61 1.44  
Year to date precipitation 19.06 21.97  
Snow  
Snow 0.00 in 0.00 in - ()
Month to date snowfall 0.0 0.0  
Since 1 July snowfall 0.0 0.0  
Snow Depth 0.00 in    
Sea Level Pressure  
Sea Level Pressure 30.18 in    
Wind  
Wind Speed 10 mph (SE)    
Max Wind Speed 17 mph    
Max Gust Speed 22 mph    
Visibility 9 miles    
Events Rain    
T = Trace of Precipitation, MM = Missing Value Source: NWS Daily Summary

Daily Weather History Graph

Daily Weather History Graph

Search for Another Location

Airport:

Trip Planner

Search our weather history database for the weather conditions in past years. The results will help you decide how hot, cold, wet, or windy it might be!

Date:

Astronomy

Sep. 16, 2011 Rise Set
Actual Time 7:10 AM CDT 7:37 PM CDT
Civil Twilight 6:42 AM CDT 8:05 PM CDT
Nautical Twilight 6:09 AM CDT 8:38 PM CDT
Astronomical Twilight 5:35 AM CDT 9:12 PM CDT
Moon 9:23 PM CDT (9/16) 11:22 AM CDT (9/16)
Length of Visible Light 13h 23m
Length of Day
12h 27m
Waning Gibbous, 84% of the Moon is Illuminated
Sep 16
Waning Gibbous
Sep 20
Last Quarter
Sep 27
New
Oct 3
First Quarter
Oct 11
Full

Hourly Weather History & Observations

Time (CDT) Temp. Windchill Dew Point Humidity Pressure Visibility Wind Dir Wind Speed Gust Speed Precip Events Conditions
12:56 AM 44.1 °F 42.5 °F 41.0 °F 89% 30.29 in 7.0 mi SE 3.5 mph - 0.04 in Rain Light Rain
1:56 AM 44.1 °F 40.1 °F 42.1 °F 93% 30.27 in 10.0 mi ESE 6.9 mph - 0.04 in Rain Light Rain
2:56 AM 44.1 °F 40.1 °F 42.1 °F 93% 30.26 in 10.0 mi ESE 6.9 mph - 0.00 in   Overcast
3:56 AM 45.0 °F 41.2 °F 41.0 °F 86% 30.25 in 10.0 mi ESE 6.9 mph - N/A   Overcast
4:56 AM 44.1 °F 39.5 °F 41.0 °F 89% 30.23 in 10.0 mi SE 8.1 mph - N/A   Overcast
6:56 AM 45.0 °F 40.6 °F 41.0 °F 86% 30.22 in 10.0 mi ESE 8.1 mph - N/A   Overcast
7:56 AM 45.0 °F 39.3 °F 41.0 °F 86% 30.23 in 10.0 mi ESE 11.5 mph - N/A   Overcast
9:48 AM 46.4 °F 40.7 °F 42.8 °F 87% 30.19 in 10.0 mi SE 12.7 mph 20.7 mph N/A   Overcast
9:56 AM 48.0 °F - 43.0 °F 83% 30.22 in 10.0 mi SE 12.7 mph - N/A   Overcast
11:56 AM 50.0 °F - 41.0 °F 71% 30.19 in 10.0 mi SSE 10.4 mph - N/A   Overcast
12:56 PM 48.9 °F - 42.1 °F 77% 30.18 in 10.0 mi SSE 13.8 mph - N/A   Overcast
1:56 PM 50.0 °F - 43.0 °F 77% 30.17 in 10.0 mi SSE 15.0 mph - N/A   Overcast
3:56 PM 52.0 °F - 44.1 °F 74% 30.13 in 10.0 mi SE 11.5 mph - N/A   Overcast
4:56 PM 51.1 °F - 44.1 °F 77% 30.12 in 10.0 mi SSE 8.1 mph - N/A   Overcast
5:56 PM 51.1 °F - 45.0 °F 80% 30.12 in 10.0 mi SE 9.2 mph - N/A   Overcast
6:56 PM 51.1 °F - 45.0 °F 80% 30.12 in 10.0 mi SE 9.2 mph - N/A   Overcast
7:56 PM 51.1 °F - 46.0 °F 83% 30.11 in 9.0 mi SE 8.1 mph - N/A   Overcast
8:17 PM 50.0 °F - 46.4 °F 87% 30.10 in 8.0 mi SE 9.2 mph - N/A   Overcast
8:56 PM 50.0 °F - 46.0 °F 86% 30.13 in 10.0 mi SE 9.2 mph - N/A   Overcast
9:03 PM 50.0 °F - 46.4 °F 87% 30.11 in 10.0 mi SE 10.4 mph - N/A   Overcast
9:56 PM 51.1 °F - 46.9 °F 86% 30.13 in 9.0 mi SE 11.5 mph - N/A   Overcast
10:56 PM 50.0 °F - 48.0 °F 93% 30.13 in 3.0 mi SE 10.4 mph - N/A   Overcast
11:56 PM 50.0 °F - 48.0 °F 93% 30.13 in 4.0 mi SE 10.4 mph - N/A   Overcast